Location: Chiroubles
(46.1812°N, 4.6660°E)
Time: 11:11:03
(UTC+00:00)

Tiros 1 - All Passes

Search period start: 30 November 2020 00:00
Search period end: 10 December 2020 00:00
Orbit: 630 x 664 km, 48.4° (Epoch: 29 November)

Date Brightness Start Highest point End Pass type
(mag) Time Alt. Az. Time Alt. Az. Time Alt. Az.
30 Nov - 13:56:16 10° SSW 14:00:28 30° SE 14:04:40 10° E daylight
30 Nov - 15:37:31 10° WSW 15:42:21 88° SSE 15:47:10 10° ENE daylight
30 Nov - 17:19:58 10° W 17:24:46 66° N 17:29:32 10° E visible
30 Nov - 19:02:21 10° WNW 19:07:08 78° SSW 19:11:53 10° ESE visible
30 Nov - 20:45:03 10° W 20:48:53 24° SW 20:52:41 10° SSE visible
01 Dec - 12:42:09 10° SSE 12:44:47 15° SE 12:47:23 10° E daylight
01 Dec - 14:21:33 10° SW 14:26:14 54° SSE 14:30:56 10° ENE daylight
01 Dec - 16:03:37 10° W 16:08:26 72° N 16:13:14 10° ENE daylight
01 Dec - 17:46:06 10° WNW 17:50:55 75° N 17:55:41 10° E visible
01 Dec - 19:28:27 10° WNW 19:33:03 48° SSW 19:37:35 10° SE visible
01 Dec - 21:12:37 10° WSW 21:14:23 12° SW 21:16:10 10° SSW night (unlit)
02 Dec - 13:06:14 10° SSW 13:10:20 29° SE 13:14:27 10° E daylight
02 Dec - 14:47:21 10° WSW 14:52:11 85° SSE 14:57:00 10° ENE daylight
02 Dec - 16:29:47 10° W 16:34:36 66° N 16:39:22 10° E visible
02 Dec - 18:12:10 10° WNW 18:16:59 81° SSW 18:21:44 10° ESE visible
02 Dec - 19:54:48 10° W 19:58:46 26° SW 20:02:42 10° SSE visible
03 Dec - 11:52:21 10° SSE 11:54:40 13° SE 11:56:59 10° ESE daylight
03 Dec - 13:31:26 10° SW 13:36:05 51° SSE 13:40:45 10° ENE daylight
03 Dec - 15:13:26 10° W 15:18:15 74° N 15:23:04 10° ENE daylight
03 Dec - 16:55:55 10° WNW 17:00:45 74° N 17:05:31 10° E visible
03 Dec - 18:38:16 10° WNW 18:42:55 51° SSW 18:47:30 10° SE visible
03 Dec - 20:22:06 10° WSW 20:24:18 13° SW 20:26:30 10° SSW visible
04 Dec - 12:16:12 10° SSW 12:20:12 27° SE 12:24:14 10° E daylight
04 Dec - 13:57:11 10° WSW 14:02:01 82° SSE 14:06:50 10° ENE daylight
04 Dec - 15:39:36 10° W 15:44:25 66° N 15:49:12 10° E daylight
04 Dec - 17:21:59 10° WNW 17:26:49 85° SSW 17:31:36 10° ESE visible
04 Dec - 19:04:34 10° W 19:08:39 28° SW 19:12:42 10° SSE visible
05 Dec - 11:02:38 10° SSE 11:04:34 12° SE 11:06:30 10° ESE daylight
05 Dec - 12:41:19 10° SW 12:45:56 48° SSE 12:50:35 10° ENE daylight
05 Dec - 14:23:15 10° W 14:28:05 75° N 14:32:54 10° ENE daylight
05 Dec - 16:05:45 10° WNW 16:10:34 72° N 16:15:22 10° E daylight
05 Dec - 17:48:05 10° WNW 17:52:46 54° SSW 17:57:23 10° SE visible
05 Dec - 19:31:40 10° WSW 19:34:12 14° SW 19:36:44 10° SSW visible
06 Dec - 11:26:11 10° SSW 11:30:05 25° SE 11:34:00 10° E daylight
06 Dec - 13:07:02 10° WSW 13:11:51 78° SSE 13:16:40 10° ENE daylight
06 Dec - 14:49:26 10° W 14:54:14 67° N 14:59:01 10° E daylight
06 Dec - 16:31:49 10° WNW 16:36:40 88° SSW 16:41:27 10° ESE visible
06 Dec - 18:14:20 10° W 18:18:32 30° SW 18:22:40 10° SSE visible
07 Dec - 10:13:03 10° SSE 10:14:28 11° SE 10:15:53 10° ESE daylight
07 Dec - 11:51:13 10° SW 11:55:47 45° SSE 12:00:23 10° ENE daylight
07 Dec - 13:33:04 10° W 13:37:54 77° NNW 13:42:43 10° ENE daylight
07 Dec - 15:15:34 10° WNW 15:20:23 71° N 15:25:11 10° E daylight
07 Dec - 16:57:53 10° WNW 17:02:37 57° SSW 17:07:18 10° SE visible
07 Dec - 18:41:17 10° W 18:44:06 16° SW 18:46:54 10° S visible
08 Dec - 10:36:12 10° SSW 10:39:57 23° SE 10:43:45 10° E daylight
08 Dec - 12:16:52 10° WSW 12:21:41 75° SSE 12:26:30 10° ENE daylight
08 Dec - 13:59:14 10° W 14:04:03 67° N 14:08:50 10° E daylight
08 Dec - 15:41:38 10° WNW 15:46:29 89° NNE 15:51:17 10° ESE daylight
08 Dec - 17:24:08 10° W 17:28:24 32° SW 17:32:38 10° SSE visible
09 Dec - 09:23:56 10° SE 09:24:22 10° SE 09:24:49 10° SE daylight
09 Dec - 11:01:07 10° SW 11:05:39 43° SSE 11:10:12 10° ENE daylight
09 Dec - 12:42:53 10° W 12:47:43 79° NNW 12:52:34 10° ENE daylight
09 Dec - 14:25:23 10° WNW 14:30:12 70° N 14:35:01 10° E daylight
09 Dec - 16:07:42 10° WNW 16:12:27 60° SSW 16:17:10 10° SE daylight
09 Dec - 17:50:56 10° W 17:53:59 17° SW 17:57:02 10° S visible
